QPF
0.01 0.02 0.02 0.02 0.02 0.02 0.03 0.03 0.02 0.02 0.02 0.02 0.01 0.01 0.01 0.01 0.01 0.02 0.01 0.01 0.02 0.01 0.01 0.01 0.01 0.01 0.01 0.01 0.01 0.02 0.03 0.04 0.03 0.04 0.05 0.05 0.03 0.03 0.02 0.02 0.02 0.02 0.01
0.01 0.02 0.02 0.01 0.01 0.02 0.03 0.03 0.03 0.02 0.02 0.02 0.02 0.02 0.01 0.01 0.02 0.01 0.01 0.01 0.01 0.01 0.01 0.01 0.01 0.01 0.02 0.01 0.02 0.02 0.03 0.03 0.03 0.03 0.04 0.04 0.04 0.03 0.02 0.02 0.01 0.01 0.02
0.01 0.02 0.02 0.02 0.02 0.02 0.02 0.02 0.03 0.02 0.02 0.03 0.03 0.03 0.03 0.02 0.02 0.01 0.01 0.01 0.01 0.02 0.02 0.02 0.02 0.02 0.02 0.02 0.02 0.02 0.02 0.01 0.02 0.02 0.03 0.03 0.02 0.02 0.03 0.02 0.02 0.02 0.01
0.01 0.02 0.02 0.03 0.03 0.02 0.02 0.02 0.02 0.02 0.02 0.03 0.03 0.03 0.03 0.03 0.02 0.02 0.02 0.03 0.03 0.04 0.03 0.02 0.01 0.01 0.02 0.02 0.02 0.02 0.01 0.02 0.02 0.02 0.02 0.02 0.02 0.02 0.02 0.03 0.02 0.02 0.02
0.01 0.02 0.02 0.02 0.03 0.03 0.01 0.01 0.00 0.01 0.02 0.02 0.03 0.04 0.04 0.03 0.02 0.04 0.04 0.03 0.04 0.03 0.03 0.02 0.01 0.01 0.01 0.01 0.01 0.02 0.02 0.02 0.02 0.02 0.02 0.03 0.03 0.03 0.03 0.02 0.02 0.03 0.03
0.01 0.02 0.03 0.03 0.03 0.02 0.02 0.01 0.01 0.01 0.02 0.02 0.02 0.02 0.02 0.02 0.03 0.03 0.03 0.03 0.03 0.03 0.02 0.02 0.01 0.01 0.01 0.01 0.01 0.01 0.01 0.02 0.02 0.03 0.04 0.05 0.05 0.05 0.06 0.05 0.04 0.03 0.03
0.01 0.02 0.02 0.02 0.02 0.02 0.03 0.03 0.03 0.04 0.03 0.02 0.01 0.01 0.01 0.01 0.01 0.01 0.01 0.02 0.03 0.02 0.02 0.01 0.01 0.01 0.02 0.01 0.01 0.02 0.02 0.02 0.02 0.03 0.03 0.04 0.06 0.07 0.07 0.06 0.06 0.05 0.06
0.02 0.02 0.02 0.02 0.02 0.03 0.04 0.05 0.05 0.04 0.02 0.01 0.01 0.02 0.02 0.01 0.01 0.00 0.00 0.00 0.01 0.01 0.01 0.02 0.01 0.02 0.02 0.02 0.02 0.03 0.03 0.03 0.03 0.03 0.03 0.03 0.05 0.06 0.06 0.06 0.07 0.08 0.07
0.01 0.01 0.01 0.02 0.03 0.04 0.04 0.04 0.04 0.03 0.02 0.02 0.02 0.02 0.02 0.01 0.01 0.01 0.00 0.00 0.01 0.01 0.01 0.02 0.02 0.02 0.02 0.02 0.03 0.03 0.03 0.03 0.03 0.03 0.03 0.03 0.04 0.05 0.05 0.05 0.06 0.06 0.06
0.02 0.02 0.03 0.04 0.04 0.04 0.03 0.02 0.02 0.01 0.01 0.01 0.01 0.01 0.02 0.02 0.01 0.01 0.00 0.01 0.01 0.02 0.02 0.02 0.02 0.02 0.03 0.03 0.03 0.03 0.04 0.04 0.05 0.04 0.04 0.03 0.03 0.04 0.05 0.04 0.05 0.05 0.05
0.04 0.04 0.03 0.02 0.02 0.02 0.03 0.02 0.02 0.02 0.02 0.01 0.01 0.01 0.02 0.02 0.02 0.01 0.01 0.01 0.02 0.02 0.02 0.02 0.02 0.03 0.03 0.03 0.03 0.02 0.03 0.05 0.05 0.05 0.04 0.04 0.04 0.04 0.04 0.04 0.05 0.05 0.05
0.03 0.02 0.02 0.03 0.02 0.02 0.03 0.03 0.03 0.02 0.02 0.02 0.02 0.02 0.02 0.02 0.02 0.02 0.02 0.02 0.02 0.03 0.03 0.03 0.04 0.04 0.04 0.04 0.04 0.04 0.06 0.06 0.06 0.05 0.05 0.05 0.05 0.04 0.04 0.04 0.04 0.04 0.05
0.03 0.03 0.03 0.03 0.03 0.03 0.04 0.04 0.06 0.05 0.04 0.04 0.05 0.04 0.03 0.03 0.02 0.02 0.02 0.03 0.04 0.04 0.04 0.05 0.06 0.07 0.07 0.06 0.07 0.07 0.06 0.05 0.05 0.04 0.04 0.03 0.03 0.04 0.04 0.04 0.04 0.04 0.04
0.01 0.02 0.02 0.02 0.03 0.04 0.06 0.06 0.05 0.05 0.06 0.08 0.09 0.09 0.07 0.06 0.06 0.06 0.04 0.04 0.05 0.05 0.07 0.10 0.11 0.10 0.09 0.07 0.07 0.06 0.05 0.04 0.03 0.03 0.03 0.03 0.03 0.03 0.03 0.04 0.05 0.06 0.06
0.01 0.01 0.02 0.02 0.02 0.02 0.03 0.05 0.06 0.06 0.08 0.08 0.07 0.07 0.09 0.11 0.13 0.14 0.14 0.10 0.08 0.08 0.10 0.10 0.10 0.08 0.07 0.05 0.04 0.04 0.03 0.02 0.02 0.02 0.02 0.03 0.03 0.03 0.04 0.05 0.07 0.08 0.08
0.01 0.01 0.01 0.01 0.01 0.01 0.02 0.03 0.03 0.04 0.05 0.05 0.05 0.06 0.06 0.08 0.10 0.11 0.12 0.12 0.12 0.11 0.09 0.06 0.06 0.06 0.05 0.05 0.04 0.04 0.03 0.02 0.02 0.03 0.04 0.05 0.05 0.05 0.07 0.08 0.10 0.09 0.09
0.02 0.01 0.01 0.02 0.02 0.02 0.02 0.03 0.04 0.04 0.04 0.03 0.03 0.03 0.04 0.05 0.07 0.09 0.11 0.11 0.11 0.10 0.08 0.05 0.05 0.06 0.06 0.05 0.05 0.04 0.03 0.03 0.04 0.04 0.04 0.04 0.06 0.08 0.09 0.10 0.10 0.11 0.11
0.02 0.02 0.02 0.03 0.03 0.04 0.04 0.05 0.06 0.06 0.05 0.05 0.05 0.05 0.05 0.04 0.04 0.04 0.06 0.07 0.07 0.07 0.06 0.05 0.05 0.06 0.06 0.07 0.06 0.05 0.05 0.05 0.05 0.06 0.06 0.06 0.07 0.09 0.09 0.09 0.09 0.10 0.10
0.03 0.02 0.02 0.03 0.04 0.05 0.07 0.09 0.10 0.09 0.07 0.05 0.05 0.04 0.04 0.03 0.03 0.03 0.03 0.04 0.04 0.03 0.04 0.04 0.04 0.05 0.06 0.06 0.06 0.06 0.07 0.08 0.08 0.07 0.06 0.07 0.07 0.08 0.07 0.07 0.08 0.10 0.13
0.03 0.03 0.03 0.03 0.05 0.06 0.07 0.09 0.10 0.10 0.09 0.06 0.04 0.04 0.04 0.03 0.03 0.02 0.02 0.02 0.02 0.02 0.03 0.04 0.04 0.04 0.04 0.04 0.05 0.06 0.06 0.06 0.06 0.07 0.07 0.07 0.07 0.07 0.07 0.07 0.09 0.10 0.10
0.02 0.02 0.02 0.02 0.04 0.06 0.08 0.09 0.09 0.09 0.09 0.07 0.06 0.06 0.06 0.04 0.03 0.02 0.02 0.02 0.02 0.03 0.05 0.06 0.06 0.05 0.06 0.06 0.06 0.06 0.06 0.06 0.06 0.06 0.07 0.08 0.09 0.09 0.10 0.10 0.10 0.10 0.10
0.04 0.03 0.02 0.02 0.04 0.06 0.08 0.10 0.11 0.08 0.08 0.08 0.09 0.10 0.09 0.05 0.04 0.02 0.02 0.03 0.02 0.03 0.05 0.07 0.08 0.08 0.08 0.08 0.08 0.09 0.09 0.06 0.05 0.06 0.06 0.07 0.08 0.09 0.10 0.10 0.11 0.11 0.11
0.04 0.04 0.03 0.03 0.04 0.05 0.05 0.07 0.09 0.10 0.10 0.09 0.11 0.12 0.12 0.09 0.08 0.05 0.04 0.04 0.04 0.03 0.03 0.05 0.07 0.08 0.08 0.06 0.07 0.10 0.09 0.05 0.04 0.05 0.06 0.06 0.06 0.06 0.06 0.06 0.07 0.08 0.10
0.03 0.04 0.03 0.01 0.02 0.03 0.04 0.05 0.06 0.08 0.10 0.13 0.14 0.15 0.12 0.10 0.09 0.07 0.06 0.05 0.05 0.04 0.03 0.04 0.05 0.06 0.06 0.05 0.05 0.05 0.05 0.04 0.04 0.05 0.06 0.06 0.06 0.05 0.05 0.06 0.05 0.06 0.07
0.02 0.02 0.02 0.02 0.02 0.02 0.03 0.03 0.04 0.05 0.07 0.10 0.13 0.14 0.13 0.10 0.09 0.08 0.07 0.05 0.05 0.04 0.04 0.04 0.04 0.04 0.04 0.04 0.04 0.03 0.03 0.02 0.02 0.03 0.04 0.04 0.04 0.04 0.04 0.05 0.05 0.06 0.06
0.02 0.02 0.02 0.02 0.03 0.03 0.03 0.03 0.03 0.04 0.05 0.06 0.08 0.11 0.11 0.09 0.07 0.07 0.07 0.06 0.07 0.06 0.04 0.04 0.03 0.03 0.04 0.04 0.04 0.04 0.03 0.02 0.02 0.02 0.02 0.02 0.03 0.03 0.03 0.04 0.04 0.04 0.05
MSLP
1010.72 1011.23 1011.72 1012.13 1012.40 1012.51 1012.48 1012.36 1012.23 1012.15 1012.17 1012.33 1012.59 1012.93 1013.27 1013.57 1013.76 1013.82 1013.78 1013.66 1013.52 1013.42 1013.38 1013.44 1013.59 1013.80 1014.02 1014.20 1014.32 1014.36 1014.34 1014.26 1014.18 1014.14 1014.17 1014.29 1014.49 1014.77 1015.09 1015.42 1015.75 1016.07 1016.37
1010.15 1010.68 1011.19 1011.62 1011.91 1012.05 1012.05 1011.97 1011.87 1011.82 1011.86 1012.00 1012.26 1012.58 1012.90 1013.17 1013.35 1013.42 1013.39 1013.28 1013.15 1013.05 1013.01 1013.06 1013.19 1013.38 1013.59 1013.79 1013.94 1014.04 1014.08 1014.08 1014.08 1014.10 1014.17 1014.31 1014.50 1014.74 1015.01 1015.28 1015.56 1015.82 1016.08
1009.56 1010.12 1010.65 1011.09 1011.41 1011.58 1011.62 1011.58 1011.52 1011.49 1011.54 1011.69 1011.92 1012.20 1012.48 1012.72 1012.88 1012.94 1012.91 1012.82 1012.70 1012.61 1012.58 1012.62 1012.74 1012.92 1013.12 1013.33 1013.51 1013.65 1013.75 1013.82 1013.89 1013.98 1014.10 1014.26 1014.45 1014.67 1014.90 1015.12 1015.34 1015.55 1015.76
1008.96 1009.54 1010.09 1010.55 1010.88 1011.08 1011.17 1011.18 1011.16 1011.16 1011.22 1011.35 1011.55 1011.79 1012.02 1012.22 1012.34 1012.38 1012.35 1012.27 1012.17 1012.10 1012.08 1012.13 1012.25 1012.43 1012.63 1012.85 1013.05 1013.22 1013.36 1013.50 1013.63 1013.77 1013.93 1014.12 1014.32 1014.53 1014.73 1014.92 1015.09 1015.26 1015.44
1008.38 1008.95 1009.49 1009.95 1010.30 1010.53 1010.65 1010.71 1010.74 1010.78 1010.86 1010.98 1011.15 1011.33 1011.51 1011.64 1011.72 1011.73 1011.69 1011.62 1011.55 1011.51 1011.53 1011.61 1011.75 1011.94 1012.15 1012.38 1012.59 1012.79 1012.96 1013.13 1013.31 1013.49 1013.69 1013.90 1014.11 1014.31 1014.49 1014.66 1014.80 1014.94 1015.11
1007.79 1008.33 1008.83 1009.27 1009.61 1009.86 1010.03 1010.14 1010.23 1010.31 1010.41 1010.53 1010.67 1010.80 1010.91 1010.98 1011.01 1010.99 1010.94 1010.88 1010.85 1010.86 1010.93 1011.06 1011.24 1011.47 1011.71 1011.95 1012.18 1012.39 1012.59 1012.78 1012.97 1013.17 1013.38 1013.60 1013.81 1014.01 1014.19 1014.34 1014.47 1014.61 1014.77
1007.19 1007.65 1008.08 1008.47 1008.79 1009.06 1009.26 1009.43 1009.57 1009.70 1009.83 1009.95 1010.06 1010.15 1010.20 1010.22 1010.19 1010.15 1010.09 1010.06 1010.08 1010.15 1010.30 1010.51 1010.76 1011.04 1011.33 1011.61 1011.86 1012.08 1012.28 1012.47 1012.66 1012.85 1013.05 1013.26 1013.47 1013.66 1013.83 1013.97 1014.11 1014.25 1014.42
1006.58 1006.92 1007.25 1007.56 1007.85 1008.11 1008.34 1008.55 1008.75 1008.93 1009.09 1009.22 1009.32 1009.37 1009.37 1009.33 1009.27 1009.20 1009.16 1009.17 1009.25 1009.41 1009.65 1009.96 1010.30 1010.67 1011.02 1011.34 1011.62 1011.85 1012.05 1012.23 1012.39 1012.56 1012.74 1012.92 1013.10 1013.27 1013.43 1013.58 1013.72 1013.87 1014.05
1005.99 1006.17 1006.38 1006.60 1006.83 1007.06 1007.31 1007.55 1007.79 1008.01 1008.20 1008.34 1008.42 1008.44 1008.41 1008.33 1008.25 1008.18 1008.16 1008.22 1008.38 1008.64 1008.99 1009.41 1009.87 1010.33 1010.76 1011.14 1011.45 1011.70 1011.89 1012.05 1012.18 1012.31 1012.44 1012.59 1012.73 1012.88 1013.02 1013.16 1013.31 1013.47 1013.67
1005.45 1005.48 1005.55 1005.66 1005.82 1006.01 1006.24 1006.50 1006.75 1006.99 1007.19 1007.33 1007.40 1007.39 1007.33 1007.24 1007.15 1007.10 1007.12 1007.25 1007.49 1007.86 1008.33 1008.87 1009.44 1010.00 1010.52 1010.96 1011.31 1011.58 1011.77 1011.90 1012.00 1012.09 1012.17 1012.27 1012.38 1012.49 1012.62 1012.75 1012.90 1013.07 1013.28
1005.03 1004.91 1004.85 1004.85 1004.91 1005.05 1005.24 1005.46 1005.70 1005.93 1006.11 1006.23 1006.28 1006.26 1006.18 1006.08 1006.00 1005.98 1006.06 1006.26 1006.61 1007.08 1007.66 1008.32 1009.00 1009.65 1010.25 1010.75 1011.15 1011.43 1011.62 1011.74 1011.81 1011.86 1011.90 1011.96 1012.03 1012.12 1012.22 1012.35 1012.49 1012.67 1012.89
1004.78 1004.53 1004.35 1004.24 1004.20 1004.24 1004.35 1004.51 1004.69 1004.86 1005.00 1005.08 1005.10 1005.05 1004.97 1004.89 1004.84 1004.87 1005.01 1005.30 1005.74 1006.31 1007.00 1007.74 1008.51 1009.25 1009.91 1010.46 1010.88 1011.19 1011.39 1011.50 1011.55 1011.58 1011.60 1011.62 1011.67 1011.74 1011.84 1011.96 1012.10 1012.28 1012.49
1004.70 1004.36 1004.07 1003.84 1003.69 1003.61 1003.61 1003.65 1003.73 1003.81 1003.87 1003.89 1003.87 1003.81 1003.74 1003.68 1003.68 1003.78 1004.01 1004.38 1004.90 1005.56 1006.32 1007.14 1007.97 1008.75 1009.45 1010.03 1010.48 1010.80 1011.01 1011.13 1011.18 1011.21 1011.22 1011.25 1011.30 1011.37 1011.46 1011.58 1011.73 1011.90 1012.10
1004.76 1004.34 1003.95 1003.61 1003.32 1003.10 1002.94 1002.84 1002.78 1002.74 1002.70 1002.65 1002.59 1002.53 1002.48 1002.48 1002.56 1002.74 1003.05 1003.51 1004.11 1004.83 1005.64 1006.50 1007.35 1008.14 1008.85 1009.44 1009.90 1010.23 1010.46 1010.60 1010.67 1010.72 1010.76 1010.81 1010.88 1010.97 1011.09 1011.22 1011.37 1011.54 1011.73
1004.83 1004.35 1003.87 1003.40 1002.96 1002.58 1002.25 1001.98 1001.77 1001.59 1001.45 1001.34 1001.26 1001.21 1001.21 1001.28 1001.45 1001.73 1002.14 1002.68 1003.35 1004.11 1004.94 1005.80 1006.63 1007.41 1008.10 1008.67 1009.13 1009.47 1009.72 1009.89 1010.01 1010.10 1010.19 1010.30 1010.42 1010.55 1010.71 1010.87 1011.04 1011.21 1011.38
1004.75 1004.22 1003.64 1003.04 1002.45 1001.90 1001.40 1000.96 1000.60 1000.30 1000.08 999.92 999.84 999.84 999.92 1000.09 1000.37 1000.76 1001.27 1001.89 1002.60 1003.38 1004.20 1005.03 1005.82 1006.55 1007.19 1007.73 1008.17 1008.52 1008.79 1009.00 1009.18 1009.34 1009.51 1009.69 1009.88 1010.09 1010.30 1010.50 1010.70 1010.88 1011.05
1004.39 1003.78 1003.10 1002.38 1001.65 1000.94 1000.28 999.71 999.22 998.84 998.56 998.41 998.36 998.43 998.62 998.91 999.32 999.82 1000.42 1001.10 1001.84 1002.62 1003.40 1004.17 1004.89 1005.55 1006.13 1006.62 1007.04 1007.39 1007.69 1007.96 1008.21 1008.46 1008.72 1008.99 1009.27 1009.56 1009.84 1010.10 1010.34 1010.54 1010.72
1003.63 1002.93 1002.16 1001.32 1000.47 999.64 998.88 998.20 997.65 997.23 996.96 996.84 996.87 997.05 997.35 997.77 998.30 998.91 999.58 1000.31 1001.05 1001.80 1002.52 1003.21 1003.85 1004.42 1004.93 1005.37 1005.77 1006.12 1006.46 1006.78 1007.11 1007.45 1007.81 1008.19 1008.57 1008.95 1009.30 1009.63 1009.92 1010.16 1010.36
1002.47 1001.69 1000.82 999.90 998.97 998.08 997.26 996.55 995.99 995.59 995.37 995.33 995.47 995.76 996.19 996.73 997.36 998.05 998.77 999.51 1000.23 1000.92 1001.57 1002.17 1002.71 1003.19 1003.63 1004.02 1004.40 1004.76 1005.12 1005.51 1005.91 1006.35 1006.81 1007.28 1007.76 1008.22 1008.66 1009.06 1009.41 1009.70 1009.94
1001.00 1000.16 999.23 998.27 997.31 996.41 995.60 994.93 994.43 994.10 993.98 994.05 994.30 994.71 995.24 995.88 996.58 997.31 998.04 998.75 999.42 1000.03 1000.58 1001.08 1001.52 1001.92 1002.28 1002.63 1002.98 1003.35 1003.75 1004.18 1004.65 1005.16 1005.70 1006.26 1006.82 1007.37 1007.88 1008.36 1008.77 1009.12 1009.40
999.45 998.56 997.62 996.67 995.75 994.90 994.17 993.59 993.19 992.99 992.98 993.16 993.52 994.02 994.63 995.31 996.03 996.75 997.45 998.09 998.67 999.19 999.63 1000.02 1000.37 1000.68 1000.98 1001.29 1001.62 1001.99 1002.40 1002.87 1003.38 1003.95 1004.54 1005.16 1005.78 1006.39 1006.96 1007.50 1007.97 1008.38 1008.73
998.05 997.17 996.27 995.38 994.55 993.82 993.22 992.78 992.51 992.44 992.55 992.84 993.27 993.83 994.46 995.14 995.82 996.48 997.09 997.63 998.10 998.50 998.83 999.11 999.36 999.59 999.83 1000.10 1000.41 1000.76 1001.18 1001.65 1002.18 1002.76 1003.37 1004.01 1004.66 1005.30 1005.91 1006.49 1007.02 1007.49 1007.90
997.08 996.26 995.45 994.68 993.99 993.41 992.97 992.68 992.56 992.61 992.82 993.17 993.65 994.20 994.81 995.42 996.02 996.57 997.06 997.48 997.82 998.09 998.31 998.49 998.65 998.81 998.99 999.21 999.48 999.80 1000.19 1000.63 1001.13 1001.68 1002.27 1002.89 1003.51 1004.14 1004.76 1005.36 1005.92 1006.44 1006.92
996.72 996.00 995.32 994.71 994.18 993.77 993.49 993.35 993.36 993.51 993.78 994.16 994.62 995.13 995.66 996.17 996.65 997.07 997.43 997.71 997.92 998.07 998.18 998.27 998.35 998.44 998.57 998.73 998.94 999.21 999.54 999.91 1000.34 1000.81 1001.32 1001.86 1002.43 1003.01 1003.59 1004.18 1004.75 1005.30 1005.82
997.02 996.45 995.93 995.48 995.12 994.87 994.74 994.72 994.81 995.02 995.31 995.68 996.09 996.52 996.94 997.34 997.68 997.97 998.19 998.34 998.43 998.49 998.51 998.52 998.53 998.57 998.63 998.73 998.87 999.05 999.28 999.55 999.86 1000.21 1000.60 1001.03 1001.48 1001.97 1002.48 1003.02 1003.56 1004.11 1004.66
997.94 997.52 997.16 996.87 996.66 996.54 996.52 996.58 996.73 996.95 997.23 997.54 997.88 998.22 998.53 998.80 999.02 999.19 999.30 999.35 999.36 999.33 999.29 999.25 999.21 999.18 999.18 999.21 999.26 999.34 999.45 999.58 999.75 999.94 1000.17 1000.44 1000.75 1001.11 1001.51 1001.96 1002.44 1002.96 1003.50
Thickness
5808 5804 5802 5799 5797 5794 5792 5791 5789 5787 5786 5784 5783 5781 5779 5777 5776 5774 5772 5771 5768 5766 5765 5763 5760 5760 5758 5757 5755 5752 5748 5743 5734 5734 5735 5733 5730 5725 5720 5718 5714 5711 5706
5810 5805 5802 5799 5797 5793 5791 5790 5788 5786 5785 5783 5782 5779 5778 5776 5775 5772 5770 5769 5767 5764 5762 5761 5758 5758 5755 5753 5751 5749 5746 5743 5736 5730 5730 5729 5726 5723 5719 5715 5713 5710 5706
5811 5806 5802 5799 5796 5793 5791 5789 5788 5786 5784 5783 5780 5778 5776 5775 5773 5772 5770 5768 5766 5764 5761 5759 5757 5754 5751 5750 5748 5746 5744 5742 5737 5731 5727 5726 5723 5721 5716 5713 5711 5708 5706
5812 5806 5801 5798 5795 5793 5791 5789 5787 5785 5782 5781 5779 5778 5776 5774 5773 5771 5769 5766 5764 5762 5761 5758 5756 5753 5750 5748 5745 5742 5740 5736 5734 5729 5725 5722 5720 5717 5713 5707 5704 5703 5702
5811 5805 5801 5798 5796 5793 5790 5788 5786 5784 5782 5780 5778 5776 5775 5773 5772 5769 5767 5765 5762 5760 5758 5757 5755 5752 5749 5746 5743 5739 5735 5731 5728 5724 5721 5717 5715 5711 5707 5705 5701 5700 5699
5809 5805 5801 5798 5794 5791 5788 5786 5784 5781 5780 5778 5776 5775 5773 5772 5770 5768 5765 5763 5760 5757 5755 5754 5752 5749 5746 5743 5740 5736 5732 5728 5723 5720 5717 5713 5710 5709 5706 5702 5698 5694 5690
5808 5804 5801 5797 5793 5790 5787 5784 5781 5779 5777 5775 5773 5772 5769 5768 5766 5764 5762 5760 5758 5755 5753 5750 5749 5748 5744 5740 5737 5733 5730 5726 5722 5717 5712 5710 5707 5706 5703 5698 5695 5691 5688
5806 5803 5800 5795 5791 5788 5784 5781 5778 5776 5774 5772 5770 5768 5766 5764 5762 5760 5758 5757 5755 5753 5751 5748 5744 5742 5739 5735 5732 5729 5726 5724 5720 5716 5712 5710 5707 5704 5701 5697 5693 5691 5689
5802 5799 5797 5794 5790 5786 5782 5779 5776 5774 5771 5769 5767 5765 5762 5760 5758 5756 5753 5752 5750 5749 5748 5745 5742 5738 5734 5730 5726 5723 5721 5719 5718 5714 5711 5708 5705 5701 5697 5692 5687 5683 5679
5798 5796 5795 5792 5788 5784 5781 5777 5775 5772 5769 5766 5764 5762 5760 5757 5754 5752 5749 5748 5745 5744 5743 5741 5738 5734 5730 5725 5720 5717 5714 5712 5711 5708 5705 5703 5700 5697 5693 5688 5684 5678 5675
5796 5793 5790 5788 5785 5782 5779 5775 5772 5768 5765 5762 5760 5759 5757 5755 5751 5747 5744 5743 5741 5739 5737 5735 5733 5729 5724 5720 5715 5712 5710 5706 5704 5702 5700 5698 5696 5693 5690 5686 5683 5678 5672
5790 5786 5784 5782 5781 5780 5774 5771 5768 5764 5760 5758 5755 5753 5753 5751 5748 5744 5741 5738 5735 5733 5732 5731 5728 5723 5718 5714 5710 5707 5704 5699 5698 5696 5694 5692 5690 5687 5686 5684 5681 5677 5674
5782 5780 5778 5777 5776 5774 5770 5766 5762 5759 5756 5753 5750 5748 5747 5747 5744 5741 5738 5735 5730 5727 5728 5725 5721 5717 5711 5708 5705 5701 5697 5693 5691 5689 5687 5686 5685 5684 5682 5679 5677 5674 5670
5774 5772 5772 5770 5769 5767 5765 5762 5758 5755 5751 5750 5747 5745 5744 5742 5740 5736 5732 5728 5723 5718 5716 5715 5712 5708 5703 5701 5699 5696 5693 5690 5686 5684 5682 5682 5680 5678 5675 5673 5669 5666 5662
5767 5766 5765 5763 5763 5760 5758 5757 5755 5752 5750 5745 5745 5742 5738 5735 5733 5730 5726 5722 5717 5713 5709 5706 5704 5701 5698 5696 5695 5692 5689 5685 5681 5679 5677 5675 5673 5671 5670 5668 5664 5661 5656
5758 5757 5757 5757 5757 5755 5752 5749 5747 5746 5743 5741 5738 5734 5733 5729 5726 5722 5718 5714 5709 5704 5700 5699 5698 5697 5693 5690 5688 5686 5683 5680 5677 5675 5672 5669 5667 5664 5662 5660 5657 5652 5649
5750 5750 5750 5750 5750 5749 5747 5743 5739 5736 5734 5732 5729 5726 5722 5720 5717 5713 5709 5705 5701 5696 5693 5693 5692 5689 5686 5684 5682 5679 5677 5675 5673 5670 5667 5663 5661 5658 5654 5651 5648 5645 5642
5743 5743 5742 5743 5743 5743 5741 5739 5735 5731 5727 5725 5722 5718 5715 5711 5708 5704 5700 5695 5692 5689 5687 5685 5684 5682 5680 5678 5676 5674 5671 5669 5666 5663 5660 5657 5653 5649 5646 5643 5640 5637 5634
5734 5735 5735 5735 5735 5735 5735 5732 5730 5726 5722 5719 5716 5712 5707 5703 5699 5694 5690 5688 5687 5684 5682 5679 5677 5676 5675 5672 5670 5667 5663 5660 5657 5653 5651 5647 5644 5640 5637 5635 5632 5629 5625
5726 5726 5725 5726 5726 5726 5725 5723 5720 5717 5714 5711 5708 5705 5700 5696 5692 5688 5683 5682 5680 5678 5675 5672 5671 5669 5667 5664 5662 5659 5655 5651 5648 5645 5642 5639 5636 5632 5628 5626 5623 5620 5618
5720 5719 5717 5717 5717 5717 5715 5714 5711 5708 5705 5703 5700 5698 5692 5690 5687 5684 5680 5676 5674 5671 5668 5665 5662 5660 5658 5655 5652 5650 5647 5643 5639 5636 5633 5630 5626 5623 5620 5617 5615 5613 5611
5712 5713 5711 5710 5709 5708 5706 5704 5702 5699 5696 5694 5692 5689 5683 5682 5680 5677 5674 5672 5669 5666 5664 5660 5657 5653 5650 5647 5644 5641 5637 5633 5630 5627 5624 5621 5618 5614 5611 5609 5607 5605 5603
5705 5705 5704 5703 5701 5698 5697 5695 5693 5691 5688 5686 5683 5679 5676 5673 5671 5668 5666 5664 5661 5659 5656 5653 5649 5644 5642 5639 5636 5630 5625 5621 5619 5617 5614 5611 5608 5605 5603 5600 5598 5596 5594
5697 5696 5695 5694 5692 5690 5688 5685 5683 5681 5679 5676 5673 5670 5667 5664 5661 5658 5656 5654 5652 5649 5646 5643 5639 5635 5631 5628 5623 5618 5612 5610 5608 5605 5603 5600 5597 5595 5593 5591 5590 5588 5585
5689 5688 5686 5684 5683 5681 5678 5675 5672 5670 5668 5666 5664 5660 5656 5653 5650 5647 5645 5643 5641 5638 5634 5631 5628 5624 5619 5615 5609 5604 5599 5597 5595 5592 5591 5590 5588 5585 5583 5581 5579 5577 5575
5679 5678 5676 5675 5674 5671 5668 5665 5662 5659 5657 5656 5654 5651 5646 5643 5640 5637 5634 5632 5628 5625 5622 5619 5615 5610 5606 5601 5595 5590 5587 5585 5582 5580 5579 5578 5576 5574 5572 5569 5567 5565 5564